Tracking 18987 objects as of 25-Feb-2018
HD Live streaming from Space Station
objects crossing your sky now

NOAA 16 DEB

Track NOAA 16 DEB now!
10-day predictions


NORAD ID: 41231
Int'l Code: 2000-055EL
Perigee: 764.0 km
Apogee: 855.2 km
Inclination: 98.9 °
Period: 100.9 minutes
Semi major axis: 7180 km
RCS: Unknown
Launch date: September 21, 2000
Source: United States (US)
Launch site: AIR FORCE WESTERN TEST RANGE (AFWTR)

Note: This is SATELLITE DEBRIS
aabbcc
Your satellite tracking list
Your tracking list is empty




NASA's NSSDC Master Catalog

Two Line Element Set (TLE):
1 41231U 00055EL  18055.04820590 +.00000764 +00000-0 +32732-3 0  9995
2 41231 098.8892 150.0807 0063495 261.5642 097.8337 14.26806358114456
Source of the keplerian elements: AFSPC